Simultaneous Nadir Overpasses (SNOs) Predictions

Prediction of SNOs between GOES-16 and METOP-B Satellite Orbit:

Table of predicted SNOs for the next 14.0 days since TLE Epoch: 1/10/2020
Index Date Time (GOES-16) GOES-16 Lat,Lon METOP-B Lat,Lon Distance(km) Time Diff (sec)
1 01/11/2020 02:29:07 -0.02, -75.21 0.18, -74.41 91.52 80
2 01/12/2020 14:45:19 0.02, -75.24 0.83, -78.97 425.11 80
3 01/13/2020 14:27:20 0.03, -75.24 -0.25, -73.97 145.09 80
4 01/15/2020 02:43:41 -0.03, -75.24 -0.79, -78.56 379.03 80
5 01/16/2020 02:25:43 -0.03, -75.25 0.35, -73.58 191.51 80
6 01/17/2020 14:41:55 0.03, -75.29 0.65, -78.14 324.04 80
7 01/18/2020 14:23:56 0.03, -75.31 -0.42, -73.14 246.87 80
8 01/20/2020 02:40:18 -0.03, -75.32 -0.55, -77.75 276.29 80
9 01/21/2020 02:22:18 -0.03, -75.34 0.53, -72.74 294.84 80
10 01/22/2020 14:38:31 0.03, -75.38 0.47, -77.31 219.95 80
11 01/23/2020 14:20:32 0.03, -75.40 -0.67, -72.32 351.63 80




NCC Satellite Simultaneous Nadir Overpasses (SNOs) Prediction Service
